This is the latest recevied weather packets stored in our database for station/object W1RCY. If no packets are shown the sender has not sent any weather packets the latest 10 day(s).
| Time | Temp. | Humidity | Pressure | Rain* | Wind** | Luminosity | Snow |
|---|---|---|---|---|---|---|---|
| 1777974519 | 10° C | 78% | 1007.1 hPa | 0 mm | - | 6 W/m² | - |
| 1777974217 | 10.56° C | 76% | 1007.3 hPa | 0 mm | - | 4 W/m² | - |
| 1777973912 | 10.56° C | 75% | 1007.2 hPa | 0 mm | - | 2 W/m² | - |
| 1777973610 | 11.11° C | 74% | 1007.1 hPa | 0 mm | - | 1 W/m² | - |
| 1777973307 | 11.11° C | 74% | 1007.1 hPa | 0 mm | - | 0 W/m² | - |
| 1777973005 | 11.11° C | 74% | 1007.1 hPa | 0 mm | - | 0 W/m² | - |
| 1777972702 | 11.11° C | 73% | 1007.1 hPa | 0 mm | - | 0 W/m² | - |
| 1777972400 | 11.11° C | 73% | 1007.2 hPa | 0 mm | - | 0 W/m² | - |
| 1777972098 | 11.67° C | 72% | 1006.9 hPa | 0 mm | - | 0 W/m² | - |
| 1777971796 | 11.67° C | 72% | 1007.1 hPa | 0 mm | - | 0 W/m² | - |
| 1777971493 | 11.11° C | 73% | 1007 hPa | 0 mm | - | 0 W/m² | - |
| 1777971190 | 11.67° C | 72% | 1007.2 hPa | 0 mm | - | 0 W/m² | - |
| 1777970888 | 11.67° C | 72% | 1007.4 hPa | 0 mm | - | 0 W/m² | - |
| 1777970587 | 11.67° C | 72% | 1007.2 hPa | 0 mm | - | 0 W/m² | - |
| 1777970283 | 11.67° C | 71% | 1007.2 hPa | 0 mm | - | 0 W/m² | - |
| 1777969980 | 11.67° C | 70% | 1007.1 hPa | 0 mm | - | 0 W/m² | - |
| 1777969676 | 11.67° C | 70% | 1007.2 hPa | 0 mm | - | 0 W/m² | - |
| 1777969374 | 11.67° C | 70% | 1007.4 hPa | 0 mm | - | 0 W/m² | - |
| 1777969069 | 11.67° C | 70% | 1007.3 hPa | 0 mm | - | 0 W/m² | - |
| 1777968767 | 11.67° C | 70% | 1007.4 hPa | 0 mm | - | 0 W/m² | - |
| 1777968463 | 11.67° C | 70% | 1007.5 hPa | 0 mm | - | 0 W/m² | - |
| 1777968159 | 12.22° C | 69% | 1007.4 hPa | 0 mm | - | 0 W/m² | - |
| 1777967855 | 12.78° C | 68% | 1007.6 hPa | 0 mm | - | 0 W/m² | - |
| 1777967552 | 12.78° C | 67% | 1007.4 hPa | 0 mm | - | 0 W/m² | - |
| 1777967249 | 12.22° C | 68% | 1007.5 hPa | 0 mm | - | 0 W/m² | - |
* Rain latest hour (hover to see other rain measurements)
** Current wind speed in m/s (hover to see current wind gust speed)